Location: Cassano d�Adda
(45.5333°N, 9.5167°E)
Time: 17:41:44
(UTC+00:00)

Cosmos 1943 Rocket - Pass Details

Date: 08 December 2019
Orbit: 812 x 844 km, 71.0° (Epoch: 19 January)

Event Time Altitude Azimuth Distance (km) Brightness Sun altitude
Rises 18:34:33 0° 336° (NNW) 3,407 5.6 -29.9°
Reaches altitude 10° 18:37:03 10° 339° (NNW) 2,465 4.8 -30.4°
Enters shadow 18:39:21 25° 347° (NNW) 1,643 3.7 -30.8°
